Location: Newark
(7.0858°N, 171.3717°E)
Time: 21:15:57
(UTC+00:00)

XW-2B - Visible Passes

Search period start: 20 October 2019 00:00
Search period end: 30 October 2019 00:00
Orbit: 508 x 529 km, 97.5° (Epoch: 20 October)

Date Brightness Start Highest point End Pass type
(mag) Time Alt. Az. Time Alt. Az. Time Alt. Az.
20 Oct ? 17:28:54 10° ENE 17:30:59 14° E 17:33:04 10° SE visible
21 Oct ? 06:59:35 10° SW 07:01:37 14° W 07:03:39 10° WNW visible
22 Oct ? 06:44:33 10° SSW 06:47:34 23° W 06:50:35 10° NW visible
25 Oct ? 17:51:17 10° NE 17:54:41 33° E 17:58:06 10° SSE visible
26 Oct ? 17:37:49 10° NE 17:40:39 20° E 17:43:28 10° SSE visible
27 Oct ? 17:24:58 10° ENE 17:26:36 12° E 17:28:13 10° SE visible
28 Oct ? 06:54:49 10° SW 06:57:13 16° W 06:59:36 10° WNW visible
29 Oct ? 06:39:58 10° SSW 06:43:11 26° W 06:46:21 10° NW visible
